Regional Weather Roundup
Issued by NWS Northern Indiana

Home | Current Version | Previous Version | Graphics & Text | Print | Product List | Glossary On
Versions: 1 2 3 4 5 6 7 8 9 10 11 12 13 14 15 16 17 18 19 20 21 22 23 24 25 26 27 28 29 30 31 32 33 34 35 36 37 38 39 40 41 42 43 44 45 46 47 48 49 50
000
ASUS43 KIWX 020310
RWRIWX

KIWX WEATHER ROUNDUP
NATIONAL WEATHER SERVICE NORTHERN INDIANA
1100 PM EDT WED APR 01 2015

NOTE: "FAIR" INDICATES FEW OR NO CLOUDS BELOW 12,000 FEET WITH NO
SIGNIFICANT WEATHER AND/OR OBSTRUCTIONS TO VISIBILITY.

* THESE STATIONS ARE NOT UNDER NWS QUALITY CONTROL. THEY ALSO MAY NOT
  REPORT WEATHER SUCH AS PRECIPITATION OR FOG.

INZ001>027-020400-
NORTHERN INDIANA

CITY           SKY/WX    TMP DP  RH WIND       PRES   REMARKS
GARY*          PTCLDY    63  30  29 S14       29.91F
VALPARAISO     CLEAR     55  36  48 S8        29.94F
MICHIGAN CITY* CLEAR     57  28  33 S9        29.93F
LAPORTE*       CLEAR     57  36  45 S7        29.94F
KNOX*          CLEAR     55  12  18 S15       29.94F
SOUTH BEND     CLEAR     59  33  37 S15       29.96F
GOSHEN         CLEAR     57  35  43 S13       29.96F
MONTICELLO*    PTCLDY    55  38  51 S7        29.96F
LOGANSPORT*    CLEAR     52  36  54 S9        29.99S
ROCHESTER*     CLEAR     57  36  44 S7        29.98S
WARSAW*        CLEAR     55  36  47 S5        29.97F
ANGOLA*        CLEAR     52  36  54 S5        29.99F
FORT WAYNE     MOCLDY    49  37  63 S9        30.02F
HUNTINGTON*    CLEAR     53  31  42 S6        30.00F
PERU/GRISSOM   CLEAR     53  37  55 S9        29.98S
MARION*        PTCLDY    52  34  50 S9        30.01S

$$
INZ028>050-020400-
CENTRAL INDIANA

CITY           SKY/WX    TMP DP  RH WIND       PRES   REMARKS
LAFAYETTE      PTCLDY    55  36  48 SE7       29.96F
KOKOMO*        CLEAR     52  37  58 S9        30.00S
MUNCIE*        PTCLDY    56  32  40 S9        30.02F
INDIANAPOLIS   MOCLDY    58  32  37 SE13      29.99F

$$
MIZ043>046-050>051-056>058-064>065-071>073-077>080-020400-
SOUTHWEST LOWER MICHIGAN

CITY           SKY/WX    TMP DP  RH WIND       PRES   REMARKS
BATTLE CREEK   PTCLDY    57  36  45 S14       29.96S
BENTON HARBOR  CLEAR     59  35  40 S14G21    29.91F
COLDWATER*     PTCLDY    53  34  47 S7        29.98S
HILLSDALE*     PTCLDY    55  34  46 S7        29.99F
HOLLAND        MOCLDY    59  37  44 S13       29.90F
GRAND RAPIDS   MOCLDY    56  37  49 S12       29.91F
KALAMAZOO      PTCLDY    63  37  38 S9        29.95F
STURGIS*       CLEAR     54  37  54 S8        29.96F
THREE RIVERS*  FAIR      55  36  48 S9        29.95F

$$
OHZ001>008-015>018-024>025-020400-
NORTHWEST OHIO

CITY           SKY/WX    TMP DP  RH WIND       PRES   REMARKS
WAUSEON*       DRIZZLE   52  36  54 S12       30.02
DEFIANCE       PTCLDY    55  35  47 S10       30.02S
FINDLAY        PTCLDY    47  33  58 S9        30.04F
TOLEDO EXPRESS MOCLDY    53  34  48 S8        30.02S
TOLEDO METCALF MOCLDY    49  35  58 S10       30.03S
LIMA           CLEAR     50  33  52 S8        30.05S

$$
AND FOR LAKE MICHIGAN COASTAL AND OPEN LAKE BUOY OBSERVATIONS

STATION/POSITION TEMP    WIND        PRES    VSBY  WAVE
                 AIR SEA DIR/SP/G                  HT/PER
                 (F)     (DEG/KT/KT) (MB)    (MI)  (FT/S)
CALUMET HARBOR    62     170/ 11/ 15 1011.0F
MICHIGAN CITY     60     140/ 10/ 15   N/A
BURNS HARBOR      60     180/ 10/ 15 1013.5S
SAINT JOSEPH      59     170/  7/ 12 1013.5R

$$
&&



USA.gov is the U.S. government's official web portal to all federal, state and local government web resources and services.